Total_Precipitation_Accumulation
0.12 0.19 0.23 0.28 0.23 0.17 0.14 0.14 0.23 0.30 0.42 0.50 0.50 0.63 0.88 0.73 0.56 0.46 0.48 0.42 0.40 0.43 0.53 0.55 0.62 0.64 0.69 0.76 0.84 0.91 1.09 1.28 1.55 1.79 1.62 1.40 1.37 1.34 1.29 1.34 1.45 1.69 1.84 1.94
0.12 0.16 0.20 0.24 0.26 0.19 0.16 0.14 0.13 0.23 0.39 0.46 0.56 0.60 0.70 0.67 0.60 0.53 0.58 0.57 0.55 0.61 0.62 0.66 0.73 0.71 0.67 0.65 0.76 0.90 1.08 1.22 1.42 1.52 1.38 1.20 1.10 1.12 1.14 1.20 1.36 1.52 1.67 1.77
0.21 0.19 0.22 0.27 0.26 0.22 0.19 0.20 0.21 0.31 0.42 0.43 0.56 0.54 0.57 0.71 0.75 0.69 0.54 0.57 0.62 0.57 0.61 0.63 0.68 0.70 0.67 0.65 0.81 1.06 1.12 1.17 1.28 1.38 1.38 1.28 1.10 1.07 1.12 1.19 1.33 1.42 1.46 1.52
0.35 0.39 0.44 0.36 0.32 0.28 0.26 0.31 0.31 0.35 0.40 0.45 0.58 0.55 0.44 0.46 0.53 0.63 0.65 0.66 0.63 0.62 0.62 0.59 0.58 0.63 0.63 0.66 0.82 1.00 1.10 1.19 1.38 1.53 1.51 1.45 1.38 1.31 1.34 1.39 1.39 1.39 1.42 1.44
0.56 0.56 0.47 0.46 0.46 0.46 0.49 0.59 0.52 0.47 0.45 0.49 0.51 0.55 0.53 0.43 0.39 0.47 0.55 0.68 0.68 0.63 0.64 0.63 0.62 0.63 0.67 0.72 0.90 1.12 1.24 1.34 1.45 1.60 1.65 1.64 1.70 1.73 1.72 1.69 1.56 1.50 1.52 1.55
0.65 0.73 0.72 0.68 0.58 0.52 0.63 0.98 0.88 0.72 0.60 0.58 0.58 0.81 0.88 0.71 0.56 0.52 0.51 0.62 0.75 0.72 0.67 0.68 0.65 0.68 0.81 0.94 1.08 1.21 1.38 1.50 1.55 1.73 1.84 1.81 1.87 1.96 2.01 2.04 1.96 1.93 1.82 1.71
0.74 0.83 0.86 0.79 0.60 0.61 1.08 1.38 1.07 0.90 0.81 0.75 0.81 0.81 0.79 0.70 0.61 0.52 0.51 0.58 0.69 0.85 0.77 0.71 0.73 0.86 1.02 1.10 1.18 1.24 1.40 1.53 1.64 1.84 2.01 2.12 2.26 2.35 2.34 2.32 2.30 2.22 2.02 1.89
0.93 1.11 1.15 0.77 0.74 1.00 1.21 1.09 1.08 1.08 1.11 1.07 0.96 0.76 0.66 0.64 0.57 0.54 0.53 0.55 0.56 0.61 0.66 0.71 0.77 0.96 1.16 1.22 1.22 1.27 1.34 1.51 1.76 1.96 2.01 2.08 2.35 2.44 2.41 2.35 2.26 2.14 2.02 1.86
1.12 1.24 1.02 0.82 0.88 0.93 1.04 1.13 1.16 1.17 1.19 1.09 0.95 0.81 0.70 0.67 0.56 0.51 0.50 0.51 0.53 0.56 0.65 0.75 0.86 1.09 1.36 1.44 1.41 1.36 1.43 1.59 1.82 2.01 2.16 2.29 2.41 2.38 2.34 2.33 2.25 2.12 2.02 1.87
1.23 1.21 0.98 0.92 0.94 0.91 0.98 1.04 1.16 1.10 1.03 0.99 0.94 0.83 0.71 0.61 0.50 0.46 0.49 0.49 0.51 0.56 0.65 0.74 0.89 1.09 1.32 1.33 1.30 1.33 1.36 1.46 1.61 1.74 1.82 1.95 2.12 2.09 2.00 2.01 2.06 2.05 1.98 1.90
1.29 1.32 1.21 1.15 1.14 1.03 0.92 0.88 0.87 0.88 0.87 0.90 0.90 0.88 0.73 0.61 0.52 0.44 0.44 0.46 0.51 0.62 0.75 0.82 0.89 0.99 1.08 1.15 1.20 1.24 1.23 1.26 1.36 1.46 1.57 1.69 1.77 1.84 1.80 1.77 1.71 1.72 1.73 1.73
1.43 1.28 1.24 1.38 1.26 1.11 0.92 0.85 0.81 0.78 0.77 0.80 0.81 0.81 0.69 0.60 0.57 0.47 0.40 0.44 0.54 0.64 0.73 0.81 0.92 1.05 1.11 1.13 1.22 1.30 1.29 1.25 1.24 1.29 1.37 1.44 1.53 1.55 1.52 1.41 1.30 1.22 1.18 1.19
1.13 1.06 1.05 1.13 1.08 0.98 0.91 0.92 0.96 0.91 0.84 0.78 0.77 0.73 0.63 0.56 0.52 0.46 0.46 0.49 0.58 0.60 0.62 0.69 0.80 0.97 1.11 1.25 1.33 1.39 1.37 1.30 1.27 1.21 1.23 1.30 1.37 1.43 1.43 1.27 1.08 0.94 0.85 0.82
0.95 0.90 0.97 0.97 0.95 0.89 0.86 0.91 0.94 0.84 0.81 0.78 0.77 0.71 0.64 0.57 0.51 0.48 0.47 0.48 0.51 0.52 0.54 0.65 0.74 0.83 0.94 1.15 1.32 1.38 1.37 1.32 1.25 1.19 1.15 1.19 1.22 1.25 1.32 1.38 1.28 1.09 0.89 0.74
1.11 0.91 0.91 0.90 0.89 0.87 0.79 0.79 0.78 0.72 0.67 0.69 0.69 0.69 0.64 0.58 0.52 0.49 0.46 0.45 0.49 0.54 0.57 0.66 0.76 0.82 0.93 1.07 1.16 1.18 1.17 1.15 1.11 1.12 1.14 1.13 1.16 1.17 1.16 1.23 1.23 1.17 1.03 0.86
1.07 0.89 0.78 0.77 0.80 0.86 0.81 0.75 0.73 0.70 0.64 0.59 0.60 0.55 0.52 0.47 0.45 0.45 0.45 0.47 0.56 0.63 0.68 0.79 0.84 0.87 1.00 1.12 1.17 1.16 1.15 1.10 1.03 1.04 1.09 1.11 1.12 1.13 1.10 1.16 1.17 1.17 1.07 0.89
1.01 0.91 0.79 0.70 0.69 0.73 0.75 0.68 0.62 0.61 0.59 0.54 0.51 0.48 0.44 0.42 0.45 0.44 0.41 0.43 0.51 0.61 0.70 0.87 0.92 0.92 1.04 1.16 1.24 1.21 1.14 1.05 0.92 0.89 0.93 0.99 1.04 1.04 1.03 1.05 1.05 1.07 0.97 0.77
0.85 0.80 0.76 0.71 0.64 0.62 0.68 0.64 0.56 0.57 0.59 0.53 0.47 0.46 0.47 0.52 0.62 0.67 0.63 0.59 0.62 0.61 0.65 0.78 0.86 0.94 1.04 1.13 1.19 1.21 1.17 1.08 0.95 0.83 0.81 0.88 0.94 0.97 0.97 0.97 0.96 0.96 0.87 0.67
0.68 0.71 0.70 0.68 0.66 0.62 0.67 0.64 0.61 0.60 0.59 0.53 0.49 0.49 0.53 0.61 0.74 0.81 0.81 0.82 0.85 0.83 0.75 0.73 0.80 0.84 0.94 1.01 1.05 1.12 1.09 1.03 0.94 0.78 0.75 0.80 0.86 0.94 0.93 0.87 0.88 0.87 0.78 0.66
0.63 0.63 0.62 0.66 0.73 0.75 0.75 0.71 0.68 0.65 0.60 0.56 0.57 0.60 0.64 0.69 0.78 0.87 0.88 0.87 0.86 0.90 0.83 0.74 0.71 0.74 0.80 0.86 0.90 0.95 0.94 0.95 0.92 0.76 0.70 0.82 0.90 0.96 0.92 0.83 0.83 0.80 0.71 0.67
0.62 0.55 0.53 0.52 0.53 0.57 0.56 0.53 0.55 0.58 0.60 0.65 0.75 0.86 0.89 0.84 0.85 0.96 1.04 0.93 0.76 0.78 0.77 0.71 0.64 0.65 0.66 0.78 0.82 0.86 0.85 0.85 0.89 0.81 0.74 0.81 0.89 0.93 0.90 0.82 0.76 0.70 0.64 0.66
0.60 0.54 0.50 0.48 0.45 0.43 0.37 0.35 0.41 0.52 0.60 0.66 0.75 0.89 1.01 1.04 1.04 1.02 0.94 0.91 0.82 0.79 0.70 0.62 0.56 0.54 0.54 0.60 0.72 0.77 0.77 0.76 0.79 0.78 0.74 0.78 0.86 0.88 0.86 0.78 0.72 0.64 0.60 0.62
0.58 0.55 0.50 0.45 0.44 0.42 0.36 0.34 0.35 0.44 0.54 0.62 0.73 0.93 1.08 1.11 1.18 1.30 1.11 0.83 0.75 0.74 0.67 0.56 0.52 0.49 0.45 0.43 0.57 0.67 0.68 0.72 0.75 0.74 0.71 0.67 0.68 0.72 0.73 0.67 0.62 0.61 0.65 0.67
0.60 0.55 0.56 0.53 0.47 0.41 0.41 0.41 0.41 0.46 0.52 0.58 0.67 0.87 1.08 1.21 1.15 1.03 0.97 0.85 0.73 0.65 0.61 0.55 0.46 0.43 0.42 0.38 0.46 0.55 0.61 0.66 0.65 0.63 0.61 0.59 0.62 0.66 0.64 0.62 0.59 0.61 0.66 0.68
0.59 0.55 0.57 0.59 0.57 0.55 0.55 0.56 0.58 0.59 0.63 0.64 0.64 0.70 0.82 1.04 1.18 1.00 0.81 0.74 0.69 0.60 0.57 0.56 0.48 0.42 0.39 0.36 0.37 0.44 0.50 0.54 0.54 0.53 0.52 0.55 0.60 0.59 0.55 0.53 0.56 0.59 0.63 0.66
0.58 0.56 0.59 0.59 0.58 0.60 0.67 0.75 0.82 0.85 0.89 0.92 0.83 0.76 0.78 0.86 0.96 0.95 0.81 0.71 0.66 0.62 0.56 0.54 0.50 0.45 0.40 0.38 0.36 0.39 0.45 0.52 0.55 0.54 0.51 0.55 0.54 0.52 0.53 0.55 0.52 0.52 0.55 0.55
0.58 0.54 0.54 0.56 0.58 0.62 0.74 0.86 0.97 1.05 1.12 1.20 1.12 0.94 0.85 0.82 0.85 0.86 0.80 0.73 0.70 0.68 0.64 0.60 0.56 0.53 0.49 0.45 0.40 0.39 0.46 0.53 0.56 0.58 0.59 0.61 0.63 0.62 0.58 0.55 0.50 0.47 0.47 0.43